Location: Favalello
(42.2939°N, 9.2706°E)
Time: 12:53:35
(UTC+00:00)

YAOGAN 6 - Pass Details

Date: 06 December 2019
Orbit: 466 x 505 km, 97.0° (Epoch: 28 January)

Event Time Altitude Azimuth Distance (km) Brightness Sun altitude
Rises 17:40:12 0° 173° (S) 2,494 6.3 -19.6°
Reaches altitude 10° 17:42:14 10° 176° (S) 1,627 5.3 -20.0°
Maximum altitude 17:45:42 68° 259° (W) 516 2.8 -20.6°
Drops below altitude 10° 17:49:15 10° 343° (NNW) 1,660 5.3 -21.3°
Sets 17:51:21 0° 346° (NNW) 2,551 6.3 -21.6°
